This is the latest recevied weather packets stored in our database for station/object W3EJE-13. If no packets are shown the sender has not sent any weather packets the latest 10 day(s).
| Time | Temp. | Humidity | Pressure | Rain* | Wind** | Luminosity | Snow |
|---|---|---|---|---|---|---|---|
| 1777854844 | 10° C | 57% | 1015.6 hPa | 0 mm | - | 0 W/m² | - |
| 1777854541 | 10° C | 54% | 1015.5 hPa | 0 mm | - | 0 W/m² | - |
| 1777854238 | 10° C | 54% | 1015.9 hPa | 0 mm | - | 0 W/m² | - |
| 1777853935 | 10° C | 53% | 1015.6 hPa | 0 mm | - | 0 W/m² | - |
| 1777853633 | 10° C | 54% | 1015.7 hPa | 0 mm | - | 1 W/m² | - |
| 1777853329 | 10° C | 52% | 1015.6 hPa | 0 mm | - | 1 W/m² | - |
| 1777853026 | 10° C | 54% | 1015.6 hPa | 0 mm | - | 4 W/m² | - |
| 1777852724 | 10.56° C | 53% | 1016 hPa | 0 mm | - | 7 W/m² | - |
| 1777852421 | 10.56° C | 54% | 1015.7 hPa | 0 mm | - | 10 W/m² | - |
| 1777852118 | 10.56° C | 51% | 1015.7 hPa | 0 mm | - | 13 W/m² | - |
| 1777851816 | 11.11° C | 51% | 1015.9 hPa | 0 mm | - | 17 W/m² | - |
| 1777851514 | 10.56° C | 52% | 1015.9 hPa | 0 mm | - | 22 W/m² | - |
| 1777851209 | 11.11° C | 54% | 1015.7 hPa | 0 mm | - | 24 W/m² | - |
| 1777850906 | 11.11° C | 53% | 1015.9 hPa | 0 mm | - | 34 W/m² | - |
| 1777850604 | 11.11° C | 52% | 1015.4 hPa | 0 mm | - | 46 W/m² | - |
| 1777850301 | 11.67° C | 51% | 1015.9 hPa | 0 mm | - | 50 W/m² | - |
| 1777849998 | 11.67° C | 50% | 1015.5 hPa | 0 mm | - | 52 W/m² | - |
| 1777849694 | 11.67° C | 49% | 1015.6 hPa | 0 mm | - | 55 W/m² | - |
| 1777849391 | 12.22° C | 50% | 1015.6 hPa | 0 mm | - | 68 W/m² | - |
| 1777849089 | 12.22° C | 48% | 1015.4 hPa | 0 mm | - | 90 W/m² | - |
| 1777848784 | 12.22° C | 49% | 1015.5 hPa | 0 mm | - | 99 W/m² | - |
| 1777848481 | 12.22° C | 49% | 1015.7 hPa | 0 mm | - | 78 W/m² | - |
| 1777848179 | 12.22° C | 51% | 1015.7 hPa | 0 mm | - | 121 W/m² | - |
| 1777847876 | 12.22° C | 47% | 1015.9 hPa | 0 mm | - | 130 W/m² | - |
| 1777847574 | 12.22° C | 47% | 1015.9 hPa | 0 mm | - | 109 W/m² | - |
* Rain latest hour (hover to see other rain measurements)
** Current wind speed in m/s (hover to see current wind gust speed)